Location: Oroua River
(40.4333°S, 175.4333°E)
Time: 14:08:50
(UTC+00:00)

Cosmos 1758 - Pass Details

Date: 03 February 2023
Orbit: 528 x 555 km, 82.5° (Epoch: 22 March)

Event Time Altitude Azimuth Distance (km) Brightness Sun altitude
Rises 15:59:38 0° 202° (SSW) 2,711 7.1 -15.5°
Reaches altitude 10° 16:02:07 10° 216° (SW) 1,812 6.0 -15.1°
Maximum altitude 16:05:17 23° 269° (W) 1,177 4.6 -14.6°
Enters shadow 16:05:45 23° 280° (W) 1,193 4.5 -14.6°
